Torna al catalogo

STARLINK-34244

AttivoComunicazioniVLEO
NORAD 65351·PAYLOAD·🇺🇸 United States

Lanciato Aug 28, 2025 da Cape Canaveral Space Force Station

Loading…

Prossimi Passaggi (prossime 24 ore)

TLE

AggiornatoSource: CelesTrak SupGP

Epoca: Sep 14, 2026, 22:51 UTC

1 65351C 25190A   26257.95256944 -.00010351  00000+0 -30602-3 0  2575
2 65351  53.1598   5.3138 0001362  88.8874 340.7735 15.34375989    12

Traccia STARLINK-34244 in tempo reale con AllMySat

Download on the App Store